Ellsworth, ME

7:31 AM EDT on August 25, 2016 (GMT -0400)
Hancock County-Bar Harbor

Weather History for KBHB - January, 2013

Change the Weather History Date:

Thursday, January 17, 2013

  Actual Average Record
Temperature  
Mean Temperature 26 °F -  
Max Temperature 39 °F 26 °F 50 °F (1959)
Min Temperature 10 °F 6 °F -12 °F (1974)
Degree Days  
Heating Degree Days 40    
Moisture  
Dew Point 21 °F    
Average Humidity 72    
Maximum Humidity 100    
Minimum Humidity 32    
Precipitation  
Precipitation 0.01 in - - ()
Sea Level Pressure  
Sea Level Pressure 29.88 in    
Wind  
Wind Speed 7 mph (West)    
Max Wind Speed 15 mph    
Max Gust Speed 26 mph    
Visibility 10 miles    
Events      
Averages and records for this station are not official NWS values.
T = Trace of Precipitation, MM = Missing Value Source: NWS Daily Summary

Daily Weather History Graph

Daily Weather History Graph

Search for Another Location

Airport or City:

Trip Planner

Search our weather history database for the weather conditions in past years. The results will help you decide how hot, cold, wet, or windy it might be!

Date:

Astronomy

Jan. 17, 2013 Rise Set
Actual Time 7:05 AM EST 4:22 PM EST
Civil Twilight 6:32 AM EST 4:54 PM EST
Nautical Twilight 5:57 AM EST 5:30 PM EST
Astronomical Twilight 5:22 AM EST 6:05 PM EST
Moon 9:53 AM EST (1/17) 11:29 PM EST (1/17)
Length of Visible Light 10h 22m
Length of Day
9h 17m
Waxing Crescent, 37% of the Moon is Illuminated
Jan 17
Waxing Crescent
Jan 18
First Quarter
Jan 26
Full
Feb 3
Last Quarter
Feb 10
New

Hourly Weather History & Observations

Time (EST) Temp. Windchill Dew Point Humidity Pressure Visibility Wind Dir Wind Speed Gust Speed Precip Events Conditions
12:15 AM 35.6 °F 31.7 °F 33.8 °F 93% 29.74 in 10.0 mi SE 4.6 mph - N/A   Overcast
12:35 AM 35.6 °F 32.8 °F 33.8 °F 93% 29.74 in 10.0 mi SSE 3.5 mph - N/A   Overcast
12:55 AM 35.6 °F - 35.6 °F 100% 29.73 in 9.0 mi Calm Calm - N/A   Overcast
1:15 AM 35.6 °F 31.7 °F 33.8 °F 93% 29.72 in 6.0 mi South 4.6 mph - N/A   Overcast
1:35 AM 35.6 °F 32.8 °F 35.6 °F 100% 29.72 in 4.0 mi South 3.5 mph - N/A   Overcast
1:55 AM 37.4 °F 31.4 °F 37.4 °F 100% 29.72 in 2.5 mi SSW 8.1 mph - 0.01 in   Overcast
2:15 AM 37.4 °F 32.1 °F 35.6 °F 93% 29.72 in 10.0 mi SW 6.9 mph - N/A   Overcast
2:35 AM 37.4 °F 32.8 °F 37.4 °F 100% 29.72 in 10.0 mi WSW 5.8 mph - N/A   Overcast
2:55 AM 35.6 °F 29.9 °F 35.6 °F 100% 29.72 in 10.0 mi WSW 6.9 mph - N/A   Partly Cloudy
3:15 AM 33.8 °F 27.0 °F 33.8 °F 100% 29.73 in 10.0 mi WSW 8.1 mph - N/A   Mostly Cloudy
3:35 AM 33.8 °F 25.8 °F 33.8 °F 100% 29.73 in 10.0 mi WSW 10.4 mph 16.1 mph N/A   Mostly Cloudy
3:55 AM 33.8 °F 24.8 °F 33.8 °F 100% 29.73 in 10.0 mi West 12.7 mph 20.7 mph N/A   Mostly Cloudy
4:35 AM 33.8 °F 28.6 °F 32.0 °F 93% 29.72 in 10.0 mi WSW 5.8 mph - N/A   Overcast
4:55 AM 33.8 °F 30.8 °F 32.0 °F 93% 29.74 in 10.0 mi SW 3.5 mph - N/A   Overcast
5:15 AM 32.0 °F 28.7 °F 32.0 °F 100% 29.73 in 10.0 mi West 3.5 mph - N/A   Overcast
5:35 AM 32.0 °F 27.5 °F 32.0 °F 100% 29.73 in 10.0 mi SSW 4.6 mph - N/A   Overcast
5:55 AM 30.2 °F 26.7 °F 28.4 °F 93% 29.73 in 10.0 mi WSW 3.5 mph - N/A   Mostly Cloudy
6:15 AM 30.2 °F 26.7 °F 30.2 °F 100% 29.74 in 10.0 mi WSW 3.5 mph - N/A   Mostly Cloudy
6:35 AM 30.2 °F 26.7 °F 30.2 °F 100% 29.75 in 10.0 mi WSW 3.5 mph - N/A   Mostly Cloudy
6:56 AM 30.2 °F 26.7 °F 30.2 °F 100% 29.75 in 10.0 mi SW 3.5 mph - N/A   Overcast
7:15 AM 30.2 °F 25.4 °F 28.4 °F 93% 29.75 in 10.0 mi SSW 4.6 mph - N/A   Overcast
7:35 AM 32.0 °F 27.5 °F 32.0 °F 100% 29.77 in 10.0 mi SW 4.6 mph - N/A   Overcast
7:55 AM 32.0 °F 27.5 °F 32.0 °F 100% 29.78 in 10.0 mi WSW 4.6 mph - N/A   Overcast
8:15 AM 33.8 °F 28.6 °F 32.0 °F 93% 29.79 in 10.0 mi SW 5.8 mph - N/A   Overcast
8:35 AM 33.8 °F 27.0 °F 32.0 °F 93% 29.80 in 10.0 mi SW 8.1 mph - N/A   Overcast
8:55 AM 33.8 °F 29.6 °F 32.0 °F 93% 29.81 in 10.0 mi WSW 4.6 mph - N/A   Partly Cloudy
9:15 AM 35.6 °F 29.9 °F 33.8 °F 93% 29.81 in 10.0 mi WSW 6.9 mph - N/A   Partly Cloudy
9:36 AM 37.4 °F 33.8 °F 33.8 °F 87% 29.82 in 10.0 mi WSW 4.6 mph - N/A   Partly Cloudy
9:55 AM 37.4 °F 32.8 °F 33.8 °F 87% 29.82 in 10.0 mi West 5.8 mph - N/A   Clear
10:15 AM 37.4 °F 32.1 °F 30.2 °F 75% 29.82 in 10.0 mi WSW 6.9 mph - N/A   Clear
10:35 AM 37.4 °F 30.8 °F 30.2 °F 75% 29.82 in 10.0 mi SW 9.2 mph - N/A   Clear
10:55 AM 37.4 °F 32.1 °F 30.2 °F 75% 29.82 in 10.0 mi WSW 6.9 mph - N/A   Clear
11:15 AM 39.2 °F 35.0 °F 30.2 °F 70% 29.81 in 10.0 mi WSW 5.8 mph - N/A   Clear
11:55 AM 39.2 °F 32.5 °F 28.4 °F 65% 29.81 in 10.0 mi WSW 10.4 mph 18.4 mph N/A   Clear
12:15 PM 39.2 °F 32.5 °F 28.4 °F 65% 29.81 in 10.0 mi West 10.4 mph 18.4 mph N/A   Clear
12:35 PM 39.2 °F 34.2 °F 28.4 °F 65% 29.82 in 10.0 mi West 6.9 mph 18.4 mph N/A   Partly Cloudy
12:55 PM 39.2 °F 31.6 °F 30.2 °F 70% 29.82 in 10.0 mi West 12.7 mph 20.7 mph N/A   Mostly Cloudy
1:15 PM 39.2 °F 32.0 °F 28.4 °F 65% 29.84 in 10.0 mi WNW 11.5 mph 21.9 mph N/A   Mostly Cloudy
1:35 PM 37.4 °F 31.4 °F 28.4 °F 70% 29.86 in 10.0 mi WNW 8.1 mph 26.5 mph N/A   Mostly Cloudy
1:56 PM 37.4 °F 31.4 °F 28.4 °F 70% 29.87 in 10.0 mi West 8.1 mph - N/A   Mostly Cloudy
2:15 PM 37.4 °F 30.3 °F 26.6 °F 65% 29.88 in 10.0 mi WNW 10.4 mph 20.7 mph N/A   Mostly Cloudy
2:55 PM 35.6 °F 27.5 °F 23.0 °F 60% 29.90 in 10.0 mi WNW 11.5 mph 17.3 mph N/A   Partly Cloudy
3:15 PM 33.8 °F 26.4 °F 21.2 °F 60% 29.92 in 10.0 mi WNW 9.2 mph 19.6 mph N/A   Clear
3:35 PM 33.8 °F 26.4 °F 21.2 °F 60% 29.93 in 10.0 mi WNW 9.2 mph 16.1 mph N/A   Clear
3:55 PM 32.0 °F 25.6 °F 17.6 °F 55% 29.94 in 10.0 mi NW 6.9 mph 19.6 mph N/A   Clear
4:15 PM 30.2 °F 21.9 °F 17.6 °F 60% 29.96 in 10.0 mi WNW 9.2 mph - N/A   Clear
4:35 PM 30.2 °F 19.8 °F 17.6 °F 60% 29.97 in 10.0 mi NW 13.8 mph 17.3 mph N/A   Clear
4:55 PM 30.2 °F 21.3 °F 15.8 °F 55% 29.99 in 10.0 mi WNW 10.4 mph 17.3 mph N/A   Clear
5:16 PM 28.4 °F 20.4 °F 8.6 °F 43% 30.00 in 10.0 mi WNW 8.1 mph 19.6 mph N/A   Clear
5:35 PM 26.6 °F 15.2 °F 6.8 °F 43% 30.02 in 10.0 mi NW 13.8 mph 23.0 mph N/A   Clear
5:56 PM 24.8 °F 15.3 °F 3.2 °F 40% 30.04 in 10.0 mi NW 9.2 mph 17.3 mph N/A   Clear
6:15 PM 24.8 °F 15.3 °F 6.8 °F 46% 30.04 in 10.0 mi NNW 9.2 mph 16.1 mph N/A   Clear
6:35 PM 23.0 °F 11.7 °F 3.2 °F 43% 30.06 in 10.0 mi NW 11.5 mph 18.4 mph N/A   Clear
6:55 PM 21.2 °F 7.8 °F 1.4 °F 42% 30.08 in 10.0 mi NNW 15.0 mph 24.2 mph N/A   Clear
7:15 PM 19.4 °F 6.0 °F -0.4 °F 42% 30.09 in 10.0 mi NNW 13.8 mph 23.0 mph N/A   Clear
7:35 PM 17.6 °F 6.4 °F -4.0 °F 38% 30.09 in 10.0 mi NNW 9.2 mph 19.6 mph N/A   Clear
7:55 PM 17.6 °F 7.3 °F -7.6 °F 32% 30.11 in 10.0 mi NNW 8.1 mph 16.1 mph N/A   Clear
8:35 PM 17.6 °F 6.4 °F -5.8 °F 35% 30.13 in 10.0 mi NW 9.2 mph - N/A   Clear
8:55 PM 15.8 °F 3.4 °F -7.6 °F 35% 30.12 in 10.0 mi NNW 10.4 mph - N/A   Clear
9:15 PM 15.8 °F 5.1 °F -7.6 °F 35% 30.13 in 10.0 mi NNW 8.1 mph - N/A   Clear
9:55 PM 14.0 °F 2.0 °F -7.6 °F 38% 30.11 in 10.0 mi NW 9.2 mph - N/A   Clear
10:35 PM 12.2 °F -1.0 °F -7.6 °F 41% 30.13 in 10.0 mi NNW 10.4 mph - N/A   Clear
10:55 PM 12.2 °F 2.9 °F -5.8 °F 45% 30.11 in 10.0 mi North 5.8 mph - N/A   Clear
11:15 PM 12.2 °F -1.0 °F -5.8 °F 45% 30.12 in 10.0 mi NNW 10.4 mph 16.1 mph N/A   Clear
11:35 PM 12.2 °F -0.2 °F -5.8 °F 45% 30.13 in 10.0 mi NNW 9.2 mph - N/A   Clear
11:55 PM 10.4 °F -1.5 °F -4.0 °F 52% 30.13 in 10.0 mi North 8.1 mph - N/A   Clear